North Las Vegas, NV

2:57 PM PDT on March 27, 2017 (GMT -0700)
North Las Vegas

Weather History for KVGT - October, 2013

Change the Weather History Date:

Friday, October 4, 2013

  Actual Average Record
Temperature  
Mean Temperature 64 °F 74 °F  
Max Temperature 72 °F 85 °F 93 °F (2012)
Min Temperature 57 °F 62 °F 52 °F (2002)
Degree Days  
Heating Degree Days 1 0  
Month to date heating degree days 0  
Since 1 July heating degree days 1  
Cooling Degree Days 0 9  
Month to date cooling degree days 38  
Year to date cooling degree days 3168  
Growing Degree Days 14 (Base 50)    
Moisture  
Dew Point 18 °F    
Average Humidity 18    
Maximum Humidity 22    
Minimum Humidity 14    
Precipitation  
Precipitation 0.00 in 0.01 in 0.05 in (2008)
Month to date precipitation 0.02  
Year to date precipitation 3.98  
Sea Level Pressure  
Sea Level Pressure 30.19 in    
Wind  
Wind Speed 16 mph (NNE)    
Max Wind Speed 20 mph    
Max Gust Speed 31 mph    
Visibility 10 miles    
Events      
T = Trace of Precipitation, MM = Missing Value Source: NWS Daily Summary

Daily Weather History Graph

Daily Weather History Graph

Search for Another Location

Airport or City:

Trip Planner

Search our weather history database for the weather conditions in past years. The results will help you decide how hot, cold, wet, or windy it might be!

Date:

Astronomy

Oct. 04, 2013 Rise Set
Actual Time 6:38 AM PDT 6:19 PM PDT
Civil Twilight 6:12 AM PDT 6:45 PM PDT
Nautical Twilight 5:43 AM PDT 7:14 PM PDT
Astronomical Twilight 5:13 AM PDT 7:44 PM PDT
Moon 6:18 AM PDT (10/4) 6:05 PM PDT (10/4)
Length of Visible Light 12h 32m
Length of Day
11h 40m
Waning Crescent, 0% of the Moon is Illuminated
Oct 4
Waning Crescent
Oct 4
New
Oct 11
First Quarter
Oct 18
Full
Oct 26
Last Quarter

Hourly Weather History & Observations

Time (PDT) Temp. Dew Point Humidity Pressure Visibility Wind Dir Wind Speed Gust Speed Precip Events Conditions
12:53 AM 62.1 °F 12.9 °F 15% 30.03 in 10.0 mi NNW 19.6 mph 27.6 mph N/A   Clear
1:53 AM 61.0 °F 14.0 °F 16% 30.05 in 10.0 mi NNW 16.1 mph 31.1 mph N/A   Clear
2:53 AM 60.1 °F 14.0 °F 16% 30.06 in 10.0 mi North 18.4 mph 29.9 mph N/A   Clear
3:53 AM 59.0 °F 15.1 °F 18% 30.08 in 10.0 mi NNW 18.4 mph 25.3 mph N/A   Clear
4:53 AM 57.9 °F 16.0 °F 19% 30.11 in 10.0 mi North 15.0 mph 19.6 mph N/A   Clear
5:53 AM 57.0 °F 17.1 °F 21% 30.15 in 10.0 mi North 13.8 mph 19.6 mph N/A   Clear
6:53 AM 57.0 °F 17.1 °F 21% 30.17 in 10.0 mi North 11.5 mph - N/A   Clear
7:53 AM 57.9 °F 19.0 °F 22% 30.19 in 10.0 mi NNW 16.1 mph 26.5 mph N/A   Clear
8:53 AM 61.0 °F 19.9 °F 21% 30.21 in 10.0 mi NNW 15.0 mph 24.2 mph N/A   Clear
9:53 AM 63.0 °F 21.0 °F 20% 30.23 in 10.0 mi North 16.1 mph - N/A   Clear
10:53 AM 64.9 °F 19.9 °F 18% 30.23 in 10.0 mi North 16.1 mph 23.0 mph N/A   Clear
11:53 AM 66.0 °F 19.9 °F 17% 30.24 in 10.0 mi NNW 13.8 mph 25.3 mph N/A   Clear
12:10 PM 66.2 °F 19.4 °F 17% 30.21 in 10.0 mi Variable 6.9 mph 17.3 mph N/A   Clear
12:53 PM 68.0 °F 19.0 °F 15% 30.22 in 10.0 mi NW 9.2 mph - N/A   Clear
1:53 PM 70.0 °F 19.0 °F 14% 30.19 in 10.0 mi ENE 13.8 mph 23.0 mph N/A   Clear
2:53 PM 70.0 °F 19.0 °F 14% 30.19 in 10.0 mi East 15.0 mph 24.2 mph N/A   Clear
3:53 PM 70.0 °F 19.0 °F 14% 30.18 in 10.0 mi East 16.1 mph 21.9 mph N/A   Clear
4:53 PM 71.1 °F 19.0 °F 14% 30.18 in 10.0 mi East 15.0 mph - N/A   Clear
5:53 PM 69.1 °F 21.0 °F 16% 30.19 in 10.0 mi ENE 17.3 mph - N/A   Clear
6:53 PM 66.0 °F 19.9 °F 17% 30.22 in 10.0 mi East 13.8 mph - N/A   Clear
7:53 PM 64.0 °F 18.0 °F 17% 30.26 in 10.0 mi East 18.4 mph 27.6 mph N/A   Clear
8:53 PM 62.1 °F 18.0 °F 18% 30.28 in 10.0 mi East 17.3 mph - N/A   Clear
9:53 PM 61.0 °F 18.0 °F 19% 30.30 in 10.0 mi East 17.3 mph - N/A   Clear
10:53 PM 61.0 °F 18.0 °F 19% 30.32 in 10.0 mi ENE 11.5 mph - N/A   Clear
11:53 PM 61.0 °F 19.0 °F 20% 30.32 in 10.0 mi ENE 16.1 mph 21.9 mph N/A   Clear